Location: Devore Heights
(34.2372°N, 117.4156°W)
Time: 14:11:02
(UTC+00:00)

Vanguard 1 Rocket - Pass Details

Date: 17 September 2024
Orbit: 650 x 4218 km, 34.3° (Epoch: 09 October)

Event Time Altitude Azimuth Distance (km) Brightness Sun altitude
Exits shadow 12:32:04 16° 263° (W) 4,622 10.3 -13.7°
Maximum altitude 12:46:41 90° 177° (S) 3,506 10.3 -10.7°
Drops below altitude 10° 13:13:08 10° 89° (E) 7,412 13.9 -5.3°
Sets 13:18:50 0° 90° (E) 8,350 15.2 -4.1°
